Location: La B�doule
(43.2468°N, 5.5934°E)
Time: 03:49:55
(UTC+00:00)

Cosmos 1125 Rocket - Pass Details

Date: 07 June 2020
Orbit: 758 x 779 km, 74.0° (Epoch: 04 July)

Event Time Altitude Azimuth Distance (km) Brightness Sun altitude
Rises 01:38:19 0° 336° (NNW) 3,226 7.3 -18.3°
Reaches altitude 10° 01:40:42 10° 334° (NNW) 2,297 6.4 -18.1°
Maximum altitude 01:45:51 64° 254° (WSW) 840 3.5 -17.6°
Enters shadow 01:48:53 25° 179° (S) 1,515 4.6 -17.3°
